Tracking 19489 objects as of 22-Jan-2019
HD Live streaming from Space Station
objects crossing your sky now

FENGYUN 1C DEB

Track FENGYUN 1C DEB now!
10-day predictions


NORAD ID: 31683
Int'l Code: 1999-025CCR
Perigee: 706.8 km
Apogee: 810.3 km
Inclination: 98.8 °
Period: 99.9 minutes
Semi major axis: 7129 km
RCS: 0.0138 m2 (small)
Launch date: May 10, 1999
Source: People's Republic of China (PRC)
Launch site: Taiyaun Space Center, China (TSC)

Note: This is SATELLITE DEBRIS
aabbcc
Your satellite tracking list
Your tracking list is empty




NASA's NSSDC Master Catalog

Two Line Element Set (TLE):
1 31683U 99025CCR 19018.82910729  .00000849  00000-0  26458-3 0  9992
2 31683  98.7527  40.3232 0072577 341.7983  18.0610 14.42139070609819
Source of the keplerian elements: AFSPC